www.pogodaiklimat.ru

Погода и климат >> Архив погоды >> Кот-д'Ивуар >> Сассандра


ПОГОДА в Сассандре

  • Прогноз погоды в Сассандре
  • Монитор погоды в Сассандре

АРХИВ ПОГОДЫ в Сассандре

Время (UTC), дата Ветер
(напр.,м/с)
 
Видим.   Явления Облачность Т
(С)
Тd
(С)
f
(%)
Тe
(С)
Тes
(С)
Комфортность P
(гПа)
Po
(гПа)
Тmin
(С)
Tmax
(С)
R
(мм)
R24
(мм)
S
(см)
18 16.08 ЮЗ 2 10 км 8/3 400 м
[Cu med, cong Ac trans]
+25.9 +22.7 83 +34 +34 очень
душно
1012.1 1004.7 +29.1
21 16.08 ЮЗ 2 10 км 8/3 400 м
[Cu med, cong Ac trans]
+24.3 +22.4 89 +32 +32 очень
душно
1013.4 1005.9
00 17.08 З 1 10 км 9/1 400 м
[Cu med, cong Ac trans]
+24.0 +22.2 90 +31 +31 очень
душно
1014.5 1007.0
03 17.08 З 2 10 км 9/3 400 м
[Sc Ac trans]
+23.7 +22.2 91 +31 +31 очень
душно
1013.0 1005.5
06 17.08 СЗ 1 10 км 9/9 400 м
[Sc]
+23.7 +21.1 85 +30 +30 очень
душно
1013.2 1006.1 +23.2
09 17.08 З 1 10 км 9/4 400 м
[Sc Ac trans]
+27.5 +22.8 76 +37 +40 очень
душно
1015.1 1007.7
12 17.08 ЮЗ 2 10 км 9/9 400 м
[Sc]
+26.7 +22.6 78 +35 +37 очень
душно
1014.6 1007.2
15 17.08 ЮЗ 2 10 км 9/3 450 м
[Cu med, cong Ac trans]
+28.1 +23.0 74 +38 +42 очень
душно
1011.8 1004.4
18 17.08 ЮЗ 2 10 км 9/1 450 м
[Cu med, cong Ac trans]
+25.4 +22.8 86 +34 +34 очень
душно
1011.1 1003.7 +29.2
21 17.08 ЮЗ 2 10 км 6/1 400 м
[Sc Ac trans]
+24.7 +22.2 86 +32 +32 очень
душно
1012.8 1005.3
00 18.08 З 2 10 км 9/3 400 м
[Sc Ac As]
+24.2 +22.1 88 +31 +31 очень
душно
1013.5 1006.0
03 18.08 СЗ 1 10 км 9/1 400 м
[Sc Ac trans]
+23.4 +22.4 94 +32 +32 очень
душно
1012.1 1004.6
06 18.08 З 1 10 км 9/1 400 м
[Sc Ac trans]
+23.2 +22.3 95 +32 +32 очень
душно
1012.9 1005.4 +23.0
09 18.08 ЮЗ 2 10 км 9/9 400 м
[Sc]
+25.0 +22.8 88 +33 +34 очень
душно
1014.9 1007.4
12 18.08 ЮЗ 3 10 км 9/5 450 м
[Cu med, cong Ac trans]
+27.0 +23.8 83 +37 +42 очень
душно
1014.7 1007.3
15 18.08 ЮЗ 2 10 км 9/9 240 м
[Cu med, cong]
+25.5 +23.0 86 +34 +35 очень
душно
1012.3 1004.9
18 18.08 ЮЗ 3 10 км 6/3 400 м
[Sc Ac trans]
+24.1 +22.3 90 +31 +31 очень
душно
1011.4 1003.9 +28.1
03 19.08 З 2 10 км 4/0
[Ac As]
+23.4 +22.1 92 +32 +32 очень
душно
1012.4 1004.9
06 19.08 СЗ 1 10 км 8/0
[Ac und]
+22.5 +21.8 96 +30 +30 очень
душно
1012.6 1005.1 +22.4
09 19.08 ЮЗ 1 10 км 10/6 400 м
[Sc Ac As]
+25.4 +22.8 86 +34 +35 очень
душно
1015.1 1007.6
12 19.08 ЮЗ 2 10 км 9/9 450 м
[Sc Ac trans]
+27.6 +23.1 77 +37 +39 очень
душно
1014.6 1007.2
15 19.08 ЮЗ 2 10 км 10/4 450 м
[Cu med, cong Ac As]
+26.5 +22.9 81 +35 +38 очень
душно
1012.3 1004.9
18 19.08 ЮЗ 1 10 км 9/4 450 м
[Cu med, cong Ac trans]
+25.5 +22.6 84 +34 +34 очень
душно
1011.5 1004.1 +28.4
21 19.08 З 2 10 км 5/1 400 м
[Cu med, cong Ac trans]
+23.5 +22.0 91 +30 +30 очень
душно
1013.8 1006.3
00 20.08 СЗ 1 10 км 9/6 400 м
[Sc Ac trans]
+23.5 +22.5 94 +31 +31 очень
душно
1013.6 1006.1
03 20.08 З 1 10 км 8/3 400 м
[Sc Ac trans]
+23.0 +22.3 96 +31 +31 очень
душно
1011.8 1004.3
06 20.08 З 2 10 км 9/1 400 м
[Sc Ac trans]
+23.2 +22.3 95 +32 +32 очень
душно
1012.4 1004.9 +22.8
09 20.08 ЮЗ 1 10 км 9/3 400 м
[Sc Ac As]
+25.0 +22.8 88 +33 +36 очень
душно
1014.4 1006.9
12 20.08 ЮЗ 2 10 км 9/6 450 м
[Cu med, cong Ac trans]
+27.8 +23.8 79 +38 +43 очень
душно
1014.4 1007.0
15 20.08 СЗ 1 8000 м в посл. час морось 9/5 180 м
[Sc Ac und]
+26.2 +24.3 89 +36 +40 очень
душно
1012.0 1004.6
18 20.08 ЮЗ 1 10 км {морось} 9/9 180 м
[Sc]
+25.0 +23.1 89 +33 +33 очень
душно
1012.0 1004.6 +28.2 0.3
21 20.08 З 2 8000 м {морось} 10/10 400 м
[Sc]
+23.8 +23.1 96 +32 +32 очень
душно
1014.4 1006.9
00 21.08 З 1 10 км {морось} 9/9 400 м
[Sc]
+23.5 +22.8 96 +31 +31 очень
душно
1014.9 1007.4 0.2
06 21.08 З 1 10 км 9/3 400 м
[Sc Ac trans]
+23.0 +22.6 98 +32 +32 очень
душно
1013.8 1006.3 +22.7 0.5
09 21.08 С 1 8000 м 9/9 180 м
[Sc]
+25.1 +23.1 89 +34 +35 очень
душно
1015.0 1007.5
12 21.08 Ю 2 10 км 9/5 450 м
[Cu med, cong Ac trans]
+27.8 +23.0 75 +37 +43 очень
душно
1014.5 1007.1
15 21.08 ЮЗ 1 10 км 9/9 450 м
[Cu med, cong]
+27.0 +22.8 78 +36 +37 очень
душно
1012.6 1005.2
18 21.08 ЮЗ 1 10 км 10/1 400 м
[Cu med, cong Ac As]
+25.0 +22.0 83 +32 +32 очень
душно
1012.6 1005.2 +28.9
21 21.08 ЮЗ 1 10 км 9/1 400 м
[Sc Ac As]
+24.4 +22.3 88 +32 +32 очень
душно
1014.9 1007.4
00 22.08 З 1 10 км 9/1 400 м
[Sc Ac As]
+23.9 +22.1 90 +31 +31 очень
душно
1014.7 1007.2
03 22.08 ЮЗ 3 10 км 9/3 400 м
[Sc Ac As]
+24.3 +21.9 86 +31 +31 очень
душно
1013.2 1005.7
06 22.08 СЗ 1 10 км 9/4 400 м
[Sc Ac As]
+22.8 +21.3 91 +30 +30 очень
душно
1014.1 1006.6 +22.7
09 22.08 З 1 10 км 10/1 400 м
[Cu med, cong Ac As]
+24.5 +23.2 92 +33 +35 очень
душно
1014.5 1007.0
15 22.08 Ю 1 10 км 10/5 400 м
[Cu med, cong Ac As]
+26.5 +22.9 81 +35 +38 очень
душно
1013.4 1006.0
18 22.08 З 2 10 км 10/3 400 м
[Sc Ac As]
+24.9 +22.2 85 +32 +32 очень
душно
1013.7 1006.2 +28.0 0.6
21 22.08 ЮЗ 1 10 км 4/1 400 м
[Sc Ac trans]
+24.0 +21.8 88 +31 +31 очень
душно
1015.2 1007.7
03 23.08 ЮЗ 1 10 км {морось} 9/9 400 м
[Sc]
+24.0 +22.2 90 +31 +31 очень
душно
1014.3 1006.8
06 23.08 З 1 10 км {морось} 9/0
[Ac und]
+23.6 +22.7 95 +31 +31 очень
душно
1015.7 1007.8 +23.4
09 23.08 З 1 10 км 9/0
[Ac As]
+24.9 +23.0 89 +33 +37 очень
душно
1016.2 1008.7
12 23.08 ЮЗ 1 10 км 9/9 450 м
[Cu med, cong]
+26.0 +23.1 84 +35 +37 очень
душно
1015.6 1008.2
15 23.08 ЮЗ 2 10 км в посл. час морось 9/4 450 м
[Cu med, cong Ac und]
+26.4 +23.5 84 +36 +39 очень
душно
1013.3 1005.9

 

Местоположение метеостанции Сассандра (Кот-д'Ивуар): широта 4.95 долгота -6.08 высота над уровнем моря 66 м.

В архиве по умолчанию представлена погода в Сассандре за последнюю неделю. Архивные данные за месяц целиком и за предыдущие месяцы, начиная с января 2011 года, Вы можете получить, выбрав интересующий диапазон дат из раскрывающегося списка и нажав кнопку "Ввод!".


*Определитесь, кто Вы:
робот инопланетянин человек

Внимание! Время в таблицах - всемирное. Для получения местного времени необходимо прибавить поправку, которая равна 0 ч.

Смотрите также архив погоды в соседних городах и на ближайших метеорологических станциях:

Погода в Сан-Педро (Кот-д'Ивуар) (67 км)
Погода в Ганьоа (Кот-д'Ивуар) (132 км)
Погода в Табу (Кот-д'Ивуар) (155 км)
Погода в Далоа (Кот-д'Ивуар) (218 км)
Погода в Ямусукро (Кот-д'Ивуар) (231 км)
Погода в Абиджане (Кот-д'Ивуар) (241 км)
Погода в Димбокро (Кот-д'Ивуар) (243 км)
Погода в Адиаке (Кот-д'Ивуар) (310 км)
Погода в Мане (Кот-д'Ивуар) (314 км)
Погода в Буаке (Кот-д'Ивуар) (329 км)

Пояснения к столбцам:

Ветер - указаны скорость ветра в м/с - средняя за 10 мин, порывы в срок и между сроками (в фигурных скобках) и направление, откуда дует ветер: С - северный, СВ - северо-восточный, В - восточный, ЮВ - юго-восточный, Ю - южный, ЮЗ - юго-западный, З - западный, СЗ - северо-западный.
Видимость - горизонтальная дальность видимости в метрах или километрах. При видимости от 1 до 10 км при отсутствии осадков обычно наблюдается дымка, при ухудшении видимости до 1 км и менее - туман. В сухую погоду видимость может ухудшаться дымом, пылью или мглою.
Явления - указаны атмосферные явления, наблюдавшиеся в срок или в последний час перед сроком; фигурными скобками обозначены явления, наблюдавшиеся между сроками (за 1-3 часа до срока); квадратными скобками обозначены град или гололедные отложения с указанием их диаметра в мм.
Облачность - указаны через наклонную черту общая и нижняя облачность в баллах и высота нижней границы облаков в метрах; квадратными скобками обозначены формы облаков: Ci - перистые, Cs - перисто-слоистые, Cc - перисто-кучевые, Ac - высококучевые, As - высокослоистые, Sc - слоисто-кучевые, Ns - слоисто-дождевые, Cu - кучевые, Cb - кучево-дождевые. Подробнее классификацию облаков см. в Атласе облаков (PDF).
T - Температура воздуха - температура, измеренная на высоте 2 м над землей.
Td - Температура точки росы - температура, при понижении до которой содержащийся в воздухе водяной пар достигнет насыщения.
f - Относительная влажность воздуха - влажноcть воздуха, измеренная на высоте 2 м над землей.
Te - Эффективная температура - температура, которую ощущает одетый по сезону человек в тени. Характеристика душности погоды. При расчете учитывается влияние влажности воздуха и скорости ветра на теплоощущения человека.
Tes - Эффективная температура на солнце - температура, которую ощущает человек, с поправкой на солнечный нагрев. Характеристика знойности погоды. Зависит от высоты солнца над горизонтом, облачности и скорости ветра. Ночью, в пасмурную погоду, а также при ветре 12 м/с и более поправка равна нулю.
P - Атмосферное давление - приведенное к уровню моря атмосферное давление.
Po - Атмосферное давление - измеренное на уровне метеостанции атмосферное давление.
Tmin - Минимальная температура - минимум температуры воздуха на высоте 2 м над землей.
Tmax - Максимальная температура - максимум температуры воздуха на высоте 2 м над землей.
R - Количество осадков - Количество выпавших осадков за период времени, мм. При наведении курсора мыши на число - период времени, за который выпало указанное количество осадков.
R24 - Количество осадков - Количество выпавших осадков за 24 часа, мм.
S - Снежный покров - Высота снежного покрова, см. При наведении курсора мыши на число - состояние снежного покрова и степень покрытия местности в баллах.